timestamp string | voltage_V float64 | current_A float64 | power_factor float64 | active_power_kW float64 | apparent_power_kVA float64 | reactive_power_kVAR float64 | hour int64 | minute int64 | dayofweek int64 | is_weekend int64 | voltage_roll_mean_10 float64 | current_roll_std_10 float64 | power_factor_roll_min_10 float64 | lag1_active_power float64 | lag2_active_power float64 | delta_active_power float64 | volt_amp_mult float64 | real_over_apparent float64 | power_ratio float64 | pca1 float64 | pca2 float64 | pca3 float64 |
|---|---|---|---|---|---|---|---|---|---|---|---|---|---|---|---|---|---|---|---|---|---|---|
2025-07-27 07:30:00 | 235.53411 | 7.584299 | 0.926953 | 1.655872 | 1.786361 | 0.670205 | null | null | null | null | null | null | null | null | null | null | null | null | null | null | null | null |
2025-07-27 07:45:00 | 239.462899 | 7.597981 | 0.922611 | 1.67863 | 1.819434 | 0.701814 | null | null | null | null | null | null | null | null | null | null | null | null | null | null | null | null |
2025-07-27 08:00:00 | 239.721234 | 8.02551 | 0.917959 | 1.766047 | 1.923885 | 0.76316 | null | null | null | null | null | null | null | null | null | null | null | null | null | null | null | null |
2025-07-27 08:15:00 | 235.164961 | 8.721281 | 0.913015 | 1.872539 | 2.05094 | 0.836631 | null | null | null | null | null | null | null | null | null | null | null | null | null | null | null | null |
2025-07-27 08:30:00 | 235.466145 | 8.501747 | 0.907802 | 1.817305 | 2.001874 | 0.839585 | null | null | null | null | null | null | null | null | null | null | null | null | null | null | null | null |
2025-07-27 08:45:00 | 238.023058 | 7.747572 | 0.902341 | 1.664008 | 1.844101 | 0.79485 | null | null | null | null | null | null | null | null | null | null | null | null | null | null | null | null |
2025-07-27 09:00:00 | 237.749351 | 7.46394 | 0.896656 | 1.591158 | 1.774547 | 0.785641 | null | null | null | null | null | null | null | null | null | null | null | null | null | null | null | null |
2025-07-27 09:15:00 | 234.612164 | 7.038058 | 0.890771 | 1.470854 | 1.651214 | 0.750397 | null | null | null | null | null | null | null | null | null | null | null | null | null | null | null | null |
2025-07-27 09:30:00 | 234.939485 | 7.554473 | 0.884712 | 1.570226 | 1.774844 | 0.827322 | null | null | null | null | null | null | null | null | null | null | null | null | null | null | null | null |
2025-07-27 09:45:00 | 231.882725 | 7.209166 | 0.878504 | 1.468579 | 1.671681 | 0.79862 | null | null | null | null | null | null | null | null | null | null | null | null | null | null | null | null |
2025-07-27 10:00:00 | 237.754528 | 7.543884 | 0.872174 | 1.564325 | 1.793593 | 0.877418 | null | null | null | null | null | null | null | null | null | null | null | null | null | null | null | null |
2025-07-27 10:15:00 | 231.823138 | 7.455258 | 0.865749 | 1.496275 | 1.728301 | 0.864977 | null | null | null | null | null | null | null | null | null | null | null | null | null | null | null | null |
2025-07-27 10:30:00 | 234.911353 | 7.09851 | 0.859257 | 1.432828 | 1.667521 | 0.853011 | null | null | null | null | null | null | null | null | null | null | null | null | null | null | null | null |
2025-07-27 10:45:00 | 233.144473 | 6.980894 | 0.852725 | 1.387858 | 1.627557 | 0.850172 | null | null | null | null | null | null | null | null | null | null | null | null | null | null | null | null |
2025-07-27 11:00:00 | 235.167378 | 6.723776 | 0.846181 | 1.337992 | 1.581213 | 0.842622 | null | null | null | null | null | null | null | null | null | null | null | null | null | null | null | null |
2025-07-27 11:15:00 | 230.366395 | 6.668024 | 0.839654 | 1.289782 | 1.536089 | 0.834284 | null | null | null | null | null | null | null | null | null | null | null | null | null | null | null | null |
2025-07-27 11:30:00 | 231.427767 | 7.487572 | 0.83317 | 1.443744 | 1.732832 | 0.958284 | null | null | null | null | null | null | null | null | null | null | null | null | null | null | null | null |
2025-07-27 11:45:00 | 227.257177 | 6.866291 | 0.826759 | 1.290087 | 1.560414 | 0.87782 | null | null | null | null | null | null | null | null | null | null | null | null | null | null | null | null |
2025-07-27 12:00:00 | 226.122946 | 6.703952 | 0.820448 | 1.243731 | 1.515917 | 0.866682 | null | null | null | null | null | null | null | null | null | null | null | null | null | null | null | null |
2025-07-27 12:15:00 | 230.538636 | 6.768979 | 0.814263 | 1.270667 | 1.560511 | 0.905871 | null | null | null | null | null | null | null | null | null | null | null | null | null | null | null | null |
2025-07-27 12:30:00 | 225.124686 | 6.544091 | 0.808231 | 1.190716 | 1.473236 | 0.867538 | null | null | null | null | null | null | null | null | null | null | null | null | null | null | null | null |
2025-07-27 12:45:00 | 227.592662 | 6.609399 | 0.802378 | 1.206978 | 1.504251 | 0.897761 | null | null | null | null | null | null | null | null | null | null | null | null | null | null | null | null |
2025-07-27 13:00:00 | 229.4344 | 6.002072 | 0.796729 | 1.097161 | 1.377082 | 0.832221 | null | null | null | null | null | null | null | null | null | null | null | null | null | null | null | null |
2025-07-27 13:15:00 | 228.278975 | 5.618251 | 0.791308 | 1.014875 | 1.282529 | 0.784161 | null | null | null | null | null | null | null | null | null | null | null | null | null | null | null | null |
2025-07-27 13:30:00 | 224.843995 | 5.0259 | 0.786138 | 0.88837 | 1.130043 | 0.698424 | null | null | null | null | null | null | null | null | null | null | null | null | null | null | null | null |
2025-07-27 13:45:00 | 222.400107 | 4.713441 | 0.781242 | 0.818952 | 1.04827 | 0.654359 | null | null | null | null | null | null | null | null | null | null | null | null | null | null | null | null |
2025-07-27 14:00:00 | 226.01899 | 5.370339 | 0.77664 | 0.942685 | 1.213799 | 0.764625 | null | null | null | null | null | null | null | null | null | null | null | null | null | null | null | null |
2025-07-27 14:15:00 | 227.128811 | 4.67768 | 0.772353 | 0.820575 | 1.062436 | 0.674853 | null | null | null | null | null | null | null | null | null | null | null | null | null | null | null | null |
2025-07-27 14:30:00 | 222.58791 | 3.858406 | 0.768398 | 0.659926 | 0.858835 | 0.549631 | null | null | null | null | null | null | null | null | null | null | null | null | null | null | null | null |
2025-07-27 14:45:00 | 221.799916 | 3.298946 | 0.764792 | 0.559603 | 0.731706 | 0.471422 | null | null | null | null | null | null | null | null | null | null | null | null | null | null | null | null |
2025-07-27 15:00:00 | 221.879128 | 5.229195 | 0.761551 | 0.883589 | 1.160249 | 0.751963 | null | null | null | null | null | null | null | null | null | null | null | null | null | null | null | null |
2025-07-27 15:15:00 | 223.624819 | 3.475949 | 0.758689 | 0.589735 | 0.777308 | 0.50638 | null | null | null | null | null | null | null | null | null | null | null | null | null | null | null | null |
2025-07-27 15:30:00 | 224.523502 | 3.443749 | 0.756218 | 0.58471 | 0.773203 | 0.505922 | null | null | null | null | null | null | null | null | null | null | null | null | null | null | null | null |
2025-07-27 15:45:00 | 219.20609 | 4.224053 | 0.754148 | 0.698295 | 0.925938 | 0.608067 | null | null | null | null | null | null | null | null | null | null | null | null | null | null | null | null |
2025-07-27 16:00:00 | 218.343182 | 2.834825 | 0.752489 | 0.465764 | 0.618965 | 0.407653 | null | null | null | null | null | null | null | null | null | null | null | null | null | null | null | null |
2025-07-27 16:15:00 | 225.711265 | 3.540599 | 0.751248 | 0.600362 | 0.799153 | 0.527457 | null | null | null | null | null | null | null | null | null | null | null | null | null | null | null | null |
2025-07-27 16:30:00 | 220.406559 | 4.029051 | 0.750429 | 0.666403 | 0.888029 | 0.586944 | null | null | null | null | null | null | null | null | null | null | null | null | null | null | null | null |
2025-07-27 16:45:00 | 221.036484 | 4.026206 | 0.750037 | 0.667487 | 0.889938 | 0.588601 | null | null | null | null | null | null | null | null | null | null | null | null | null | null | null | null |
2025-07-27 17:00:00 | 218.95688 | 2.60549 | 0.750073 | 0.427909 | 0.57049 | 0.377296 | null | null | null | null | null | null | null | null | null | null | null | null | null | null | null | null |
2025-07-27 17:15:00 | 221.172072 | 2.692415 | 0.750537 | 0.446935 | 0.595487 | 0.393515 | null | null | null | null | null | null | null | null | null | null | null | null | null | null | null | null |
2025-07-27 17:30:00 | 222.005673 | 2.379317 | 0.751426 | 0.39692 | 0.528222 | 0.34853 | null | null | null | null | null | null | null | null | null | null | null | null | null | null | null | null |
2025-07-27 17:45:00 | 220.621003 | 2.457982 | 0.752738 | 0.408197 | 0.542282 | 0.356995 | null | null | null | null | null | null | null | null | null | null | null | null | null | null | null | null |
2025-07-27 18:00:00 | 223.481716 | 3.016388 | 0.754466 | 0.508591 | 0.674108 | 0.442443 | null | null | null | null | null | null | null | null | null | null | null | null | null | null | null | null |
2025-07-27 18:15:00 | 219.367922 | 1.579165 | 0.756604 | 0.262101 | 0.346418 | 0.226514 | null | null | null | null | null | null | null | null | null | null | null | null | null | null | null | null |
2025-07-27 18:30:00 | 219.559786 | 2.526021 | 0.759141 | 0.421029 | 0.554613 | 0.361012 | null | null | null | null | null | null | null | null | null | null | null | null | null | null | null | null |
2025-07-27 18:45:00 | 220.65496 | 2.039497 | 0.762067 | 0.342949 | 0.450025 | 0.29139 | null | null | null | null | null | null | null | null | null | null | null | null | null | null | null | null |
2025-07-27 19:00:00 | 221.270665 | 2.768958 | 0.76537 | 0.468934 | 0.612689 | 0.394321 | null | null | null | null | null | null | null | null | null | null | null | null | null | null | null | null |
2025-07-27 19:15:00 | 220.986593 | 2.702363 | 0.769035 | 0.459257 | 0.597186 | 0.381725 | null | null | null | null | null | null | null | null | null | null | null | null | null | null | null | null |
2025-07-27 19:30:00 | 218.192375 | 1.813688 | 0.773047 | 0.30592 | 0.395733 | 0.251032 | null | null | null | null | null | null | null | null | null | null | null | null | null | null | null | null |
2025-07-27 19:45:00 | 221.656303 | 1.947236 | 0.777389 | 0.335534 | 0.431617 | 0.271496 | null | null | null | null | null | null | null | null | null | null | null | null | null | null | null | null |
2025-07-27 20:00:00 | 220.591399 | 2.447217 | 0.782041 | 0.422173 | 0.539835 | 0.336439 | null | null | null | null | null | null | null | null | null | null | null | null | null | null | null | null |
2025-07-27 20:15:00 | 220.52335 | 2.503547 | 0.786985 | 0.434487 | 0.552091 | 0.340625 | null | null | null | null | null | null | null | null | null | null | null | null | null | null | null | null |
2025-07-27 20:30:00 | 222.131431 | 0.799489 | 0.792198 | 0.140688 | 0.177592 | 0.108378 | null | null | null | null | null | null | null | null | null | null | null | null | null | null | null | null |
2025-07-27 20:45:00 | 220.558557 | 2.517049 | 0.797659 | 0.442826 | 0.555157 | 0.33482 | null | null | null | null | null | null | null | null | null | null | null | null | null | null | null | null |
2025-07-27 21:00:00 | 220.65815 | 2.944592 | 0.803344 | 0.521971 | 0.649748 | 0.386935 | null | null | null | null | null | null | null | null | null | null | null | null | null | null | null | null |
2025-07-27 21:15:00 | 218.175604 | 2.31056 | 0.809229 | 0.407938 | 0.504108 | 0.29616 | null | null | null | null | null | null | null | null | null | null | null | null | null | null | null | null |
2025-07-27 21:30:00 | 227.40686 | 2.731311 | 0.815288 | 0.506391 | 0.621119 | 0.359662 | null | null | null | null | null | null | null | null | null | null | null | null | null | null | null | null |
2025-07-27 21:45:00 | 225.55576 | 2.980819 | 0.821496 | 0.552325 | 0.672341 | 0.383378 | null | null | null | null | null | null | null | null | null | null | null | null | null | null | null | null |
2025-07-27 22:00:00 | 224.766472 | 2.548839 | 0.827826 | 0.474256 | 0.572894 | 0.321385 | null | null | null | null | null | null | null | null | null | null | null | null | null | null | null | null |
2025-07-27 22:15:00 | 224.242667 | 2.95273 | 0.834251 | 0.552381 | 0.662128 | 0.365087 | null | null | null | null | null | null | null | null | null | null | null | null | null | null | null | null |
2025-07-27 22:30:00 | 220.421101 | 2.67004 | 0.840743 | 0.494805 | 0.588533 | 0.318652 | null | null | null | null | null | null | null | null | null | null | null | null | null | null | null | null |
2025-07-27 22:45:00 | 225.328548 | 2.765699 | 0.847275 | 0.528014 | 0.623191 | 0.33101 | null | null | null | null | null | null | null | null | null | null | null | null | null | null | null | null |
2025-07-27 23:00:00 | 228.843542 | 2.598556 | 0.853819 | 0.507734 | 0.594663 | 0.309563 | null | null | null | null | null | null | null | null | null | null | null | null | null | null | null | null |
2025-07-27 23:15:00 | 229.933445 | 3.162247 | 0.860346 | 0.625563 | 0.727106 | 0.370613 | null | null | null | null | null | null | null | null | null | null | null | null | null | null | null | null |
2025-07-27 23:30:00 | 229.979322 | 4.173814 | 0.86683 | 0.832062 | 0.959891 | 0.478606 | null | null | null | null | null | null | null | null | null | null | null | null | null | null | null | null |
2025-07-27 23:45:00 | 229.662753 | 2.941365 | 0.873241 | 0.589893 | 0.675522 | 0.329175 | null | null | null | null | null | null | null | null | null | null | null | null | null | null | null | null |
2025-07-28 00:00:00 | 232.607748 | 3.87016 | 0.879552 | 0.791798 | 0.900229 | 0.428332 | null | null | null | null | null | null | null | null | null | null | null | null | null | null | null | null |
2025-07-28 00:15:00 | 229.996957 | 3.89747 | 0.885737 | 0.79398 | 0.896406 | 0.416101 | null | null | null | null | null | null | null | null | null | null | null | null | null | null | null | null |
2025-07-28 00:30:00 | 233.47564 | 4.655084 | 0.891769 | 0.969218 | 1.086849 | 0.49179 | null | null | null | null | null | null | null | null | null | null | null | null | null | null | null | null |
2025-07-28 00:45:00 | 231.181738 | 4.93443 | 0.897622 | 1.023962 | 1.14075 | 0.502804 | null | null | null | null | null | null | null | null | null | null | null | null | null | null | null | null |
2025-07-28 01:00:00 | 230.825908 | 3.829998 | 0.903271 | 0.798548 | 0.884063 | 0.379325 | null | null | null | null | null | null | null | null | null | null | null | null | null | null | null | null |
2025-07-28 01:15:00 | 231.202969 | 4.197214 | 0.908692 | 0.881802 | 0.970408 | 0.405114 | null | null | null | null | null | null | null | null | null | null | null | null | null | null | null | null |
2025-07-28 01:30:00 | 231.697841 | 4.418921 | 0.913862 | 0.935661 | 1.023855 | 0.415711 | null | null | null | null | null | null | null | null | null | null | null | null | null | null | null | null |
2025-07-28 01:45:00 | 235.741023 | 4.632384 | 0.918758 | 1.003323 | 1.092043 | 0.431162 | null | null | null | null | null | null | null | null | null | null | null | null | null | null | null | null |
2025-07-28 02:00:00 | 233.514509 | 4.871566 | 0.92336 | 1.050397 | 1.137581 | 0.436759 | null | null | null | null | null | null | null | null | null | null | null | null | null | null | null | null |
2025-07-28 02:15:00 | 233.489645 | 5.440325 | 0.927647 | 1.178353 | 1.27026 | 0.474388 | null | null | null | null | null | null | null | null | null | null | null | null | null | null | null | null |
2025-07-28 02:30:00 | 237.515085 | 5.03596 | 0.931602 | 1.114305 | 1.196117 | 0.434763 | null | null | null | null | null | null | null | null | null | null | null | null | null | null | null | null |
2025-07-28 02:45:00 | 237.249399 | 5.299142 | 0.935208 | 1.175761 | 1.257218 | 0.445179 | null | null | null | null | null | null | null | null | null | null | null | null | null | null | null | null |
2025-07-28 03:00:00 | 238.996252 | 5.449323 | 0.938449 | 1.222206 | 1.302368 | 0.449861 | null | null | null | null | null | null | null | null | null | null | null | null | null | null | null | null |
2025-07-28 03:15:00 | 238.543597 | 6.277395 | 0.941311 | 1.40955 | 1.497432 | 0.505444 | null | null | null | null | null | null | null | null | null | null | null | null | null | null | null | null |
2025-07-28 03:30:00 | 236.42731 | 6.181248 | 0.943782 | 1.379258 | 1.461416 | 0.483098 | null | null | null | null | null | null | null | null | null | null | null | null | null | null | null | null |
2025-07-28 03:45:00 | 238.466901 | 6.269335 | 0.945852 | 1.414075 | 1.495029 | 0.485286 | null | null | null | null | null | null | null | null | null | null | null | null | null | null | null | null |
2025-07-28 04:00:00 | 238.91052 | 6.139948 | 0.947511 | 1.389902 | 1.466898 | 0.469003 | null | null | null | null | null | null | null | null | null | null | null | null | null | null | null | null |
2025-07-28 04:15:00 | 237.13041 | 5.923079 | 0.948752 | 1.332562 | 1.404542 | 0.443865 | null | null | null | null | null | null | null | null | null | null | null | null | null | null | null | null |
2025-07-28 04:30:00 | 237.029545 | 7.697704 | 0.949571 | 1.732571 | 1.824583 | 0.572104 | null | null | null | null | null | null | null | null | null | null | null | null | null | null | null | null |
2025-07-28 04:45:00 | 238.107858 | 6.886345 | 0.949963 | 1.557647 | 1.639693 | 0.512179 | null | null | null | null | null | null | null | null | null | null | null | null | null | null | null | null |
2025-07-28 05:00:00 | 243.732423 | 8.526032 | 0.949927 | 1.974015 | 2.07807 | 0.649338 | null | null | null | null | null | null | null | null | null | null | null | null | null | null | null | null |
2025-07-28 05:15:00 | 238.982365 | 7.687962 | 0.949463 | 1.744437 | 1.837287 | 0.576684 | null | null | null | null | null | null | null | null | null | null | null | null | null | null | null | null |
2025-07-28 05:30:00 | 242.380182 | 8.337118 | 0.948574 | 1.916832 | 2.020752 | 0.639682 | null | null | null | null | null | null | null | null | null | null | null | null | null | null | null | null |
2025-07-28 05:45:00 | 239.041268 | 8.029787 | 0.947262 | 1.818222 | 1.91945 | 0.615108 | null | null | null | null | null | null | null | null | null | null | null | null | null | null | null | null |
2025-07-28 06:00:00 | 241.777678 | 7.712006 | 0.945534 | 1.763033 | 1.864591 | 0.60697 | null | null | null | null | null | null | null | null | null | null | null | null | null | null | null | null |
2025-07-28 06:15:00 | 241.783573 | 7.42235 | 0.943396 | 1.693021 | 1.794602 | 0.595211 | null | null | null | null | null | null | null | null | null | null | null | null | null | null | null | null |
2025-07-28 06:30:00 | 241.81963 | 7.309537 | 0.940859 | 1.663053 | 1.76759 | 0.598856 | null | null | null | null | null | null | null | null | null | null | null | null | null | null | null | null |
2025-07-28 06:45:00 | 240.583507 | 8.42258 | 0.937933 | 1.900565 | 2.026334 | 0.702768 | null | null | null | null | null | null | null | null | null | null | null | null | null | null | null | null |
2025-07-28 07:00:00 | 242.413991 | 8.047809 | 0.93463 | 1.823371 | 1.950902 | 0.693784 | null | null | null | null | null | null | null | null | null | null | null | null | null | null | null | null |
2025-07-28 07:15:00 | 240.226009 | 8.263597 | 0.930965 | 1.848087 | 1.985131 | 0.724791 | null | null | null | null | null | null | null | null | null | null | null | null | null | null | null | null |
2025-07-28 07:30:00 | 242.665855 | 8.390058 | 0.926953 | 1.887257 | 2.035981 | 0.763857 | null | null | null | null | null | null | null | null | null | null | null | null | null | null | null | null |
2025-07-28 07:45:00 | 235.728888 | 8.17536 | 0.922611 | 1.778027 | 1.927169 | 0.74337 | null | null | null | null | null | null | null | null | null | null | null | null | null | null | null | null |
Subsets and Splits
No community queries yet
The top public SQL queries from the community will appear here once available.